Year,Month,Day,Hour,Minute,Value (Times are PST for temperature in C)
2017,05,07,00,00,5.00
2017,05,07,00,01,4.90
2017,05,07,00,02,4.90
2017,05,07,00,03,4.90
2017,05,07,00,04,4.90
2017,05,07,00,05,4.90
2017,05,07,00,06,4.90
2017,05,07,00,07,4.90
2017,05,07,00,08,4.90
2017,05,07,00,09,4.90
2017,05,07,00,10,4.90
2017,05,07,00,11,4.90
2017,05,07,00,12,4.90
2017,05,07,00,13,4.80
2017,05,07,00,14,4.80
2017,05,07,00,15,4.80
2017,05,07,00,16,4.80
2017,05,07,00,17,4.80
2017,05,07,00,18,4.70
2017,05,07,00,19,4.70
2017,05,07,00,20,4.60
2017,05,07,00,21,4.50
2017,05,07,00,22,4.40
2017,05,07,00,23,4.30
2017,05,07,00,24,4.30
2017,05,07,00,25,4.20
2017,05,07,00,26,4.20
2017,05,07,00,27,4.10
2017,05,07,00,28,4.10
2017,05,07,00,29,4.10
2017,05,07,00,30,4.10
2017,05,07,00,31,4.10
2017,05,07,00,32,4.10
2017,05,07,00,33,4.10
2017,05,07,00,34,4.10
2017,05,07,00,35,4.10
2017,05,07,00,36,4.10
2017,05,07,00,37,4.00
2017,05,07,00,38,4.00
2017,05,07,00,39,4.00
2017,05,07,00,40,3.90
2017,05,07,00,41,3.90
2017,05,07,00,42,3.90
2017,05,07,00,43,3.90
2017,05,07,00,44,3.80
2017,05,07,00,45,3.80
2017,05,07,00,46,3.80
2017,05,07,00,47,3.80
2017,05,07,00,48,3.70
2017,05,07,00,49,3.70
2017,05,07,00,50,3.70
2017,05,07,00,51,3.70
2017,05,07,00,52,3.70
2017,05,07,00,53,3.70
2017,05,07,00,54,3.70
2017,05,07,00,55,3.70
2017,05,07,00,56,3.70
2017,05,07,00,57,3.70
2017,05,07,00,58,3.70
2017,05,07,00,59,3.70
2017,05,07,01,00,3.70
2017,05,07,01,01,3.70
2017,05,07,01,02,3.70
2017,05,07,01,03,3.70
2017,05,07,01,04,3.80
2017,05,07,01,05,3.80
2017,05,07,01,06,3.80
2017,05,07,01,07,3.80
2017,05,07,01,08,3.70
2017,05,07,01,09,3.70
2017,05,07,01,10,3.70
2017,05,07,01,11,3.70
2017,05,07,01,12,3.70
2017,05,07,01,13,3.70
2017,05,07,01,14,3.70
2017,05,07,01,15,3.70
2017,05,07,01,16,3.70
2017,05,07,01,17,3.70
2017,05,07,01,18,3.60
2017,05,07,01,19,3.60
2017,05,07,01,20,3.60
2017,05,07,01,21,3.60
2017,05,07,01,22,3.60
2017,05,07,01,23,3.60
2017,05,07,01,24,3.50
2017,05,07,01,25,3.50
2017,05,07,01,26,3.50
2017,05,07,01,27,3.50
2017,05,07,01,28,3.50
2017,05,07,01,29,3.40
2017,05,07,01,30,3.40
2017,05,07,01,31,3.30
2017,05,07,01,32,3.30
2017,05,07,01,33,3.30
2017,05,07,01,34,3.30
2017,05,07,01,35,3.20
2017,05,07,01,36,3.20
2017,05,07,01,37,3.20
2017,05,07,01,38,3.20
2017,05,07,01,39,3.20
2017,05,07,01,40,3.10
2017,05,07,01,41,3.10
2017,05,07,01,42,3.10
2017,05,07,01,43,3.10
2017,05,07,01,44,3.10
2017,05,07,01,45,3.00
2017,05,07,01,46,3.00
2017,05,07,01,47,3.00
2017,05,07,01,48,3.00
2017,05,07,01,49,3.00
2017,05,07,01,50,3.00
2017,05,07,01,51,3.00
2017,05,07,01,52,3.00
2017,05,07,01,53,3.00
2017,05,07,01,54,3.00
2017,05,07,01,55,2.90
2017,05,07,01,56,3.00
2017,05,07,01,57,3.00
2017,05,07,01,58,3.00
2017,05,07,01,59,3.00
2017,05,07,02,00,3.00
2017,05,07,02,01,3.00
2017,05,07,02,02,3.10
2017,05,07,02,03,3.10
2017,05,07,02,04,3.10
2017,05,07,02,05,3.10
2017,05,07,02,06,3.10
2017,05,07,02,07,3.10
2017,05,07,02,08,3.10
2017,05,07,02,09,3.10
2017,05,07,02,10,3.10
2017,05,07,02,11,3.10
2017,05,07,02,12,3.10
2017,05,07,02,13,3.10
2017,05,07,02,14,3.00
2017,05,07,02,15,3.00
2017,05,07,02,16,2.90
2017,05,07,02,17,2.90
2017,05,07,02,18,2.80
2017,05,07,02,19,2.70
2017,05,07,02,20,2.70
2017,05,07,02,21,2.60
2017,05,07,02,22,2.50
2017,05,07,02,23,2.50
2017,05,07,02,24,2.50
2017,05,07,02,25,2.40
2017,05,07,02,26,2.40
2017,05,07,02,27,2.40
2017,05,07,02,28,2.40
2017,05,07,02,29,2.40
2017,05,07,02,30,2.40
2017,05,07,02,31,2.40
2017,05,07,02,32,2.40
2017,05,07,02,33,2.40
2017,05,07,02,34,2.40
2017,05,07,02,35,2.40
2017,05,07,02,36,2.40
2017,05,07,02,37,2.40
2017,05,07,02,38,2.40
2017,05,07,02,39,2.40
2017,05,07,02,40,2.30
2017,05,07,02,41,2.30
2017,05,07,02,42,2.30
2017,05,07,02,43,2.30
2017,05,07,02,44,2.30
2017,05,07,02,45,2.30
2017,05,07,02,46,2.30
2017,05,07,02,47,2.20
2017,05,07,02,48,2.20
2017,05,07,02,49,2.10
2017,05,07,02,50,2.10
2017,05,07,02,51,2.10
2017,05,07,02,52,2.10
2017,05,07,02,53,2.10
2017,05,07,02,54,2.00
2017,05,07,02,55,2.00
2017,05,07,02,56,2.00
2017,05,07,02,57,2.00
2017,05,07,02,58,2.00
2017,05,07,02,59,2.00
2017,05,07,03,00,2.00
2017,05,07,03,01,2.10
2017,05,07,03,02,2.10
2017,05,07,03,03,2.10
2017,05,07,03,04,2.10
2017,05,07,03,05,2.10
2017,05,07,03,06,2.10
2017,05,07,03,07,2.00
2017,05,07,03,08,2.00
2017,05,07,03,09,2.00
2017,05,07,03,10,2.00
2017,05,07,03,11,2.00
2017,05,07,03,12,1.90
2017,05,07,03,13,1.90
2017,05,07,03,14,1.90
2017,05,07,03,15,1.90
2017,05,07,03,16,1.90
2017,05,07,03,17,1.80
2017,05,07,03,18,1.80
2017,05,07,03,19,1.80
2017,05,07,03,20,1.80
2017,05,07,03,21,1.80
2017,05,07,03,22,1.80
2017,05,07,03,23,1.80
2017,05,07,03,24,1.80
2017,05,07,03,25,1.70
2017,05,07,03,26,1.70
2017,05,07,03,27,1.70
2017,05,07,03,28,1.70
2017,05,07,03,29,1.70
2017,05,07,03,30,1.70
2017,05,07,03,31,1.70
2017,05,07,03,32,1.70
2017,05,07,03,33,1.70
2017,05,07,03,34,1.70
2017,05,07,03,35,1.70
2017,05,07,03,36,1.70
2017,05,07,03,37,1.70
2017,05,07,03,38,1.70
2017,05,07,03,39,1.70
2017,05,07,03,40,1.70
2017,05,07,03,41,1.70
2017,05,07,03,42,1.60
2017,05,07,03,43,1.60
2017,05,07,03,44,1.60
2017,05,07,03,45,1.60
2017,05,07,03,46,1.60
2017,05,07,03,47,1.60
2017,05,07,03,48,1.60
2017,05,07,03,49,1.50
2017,05,07,03,50,1.50
2017,05,07,03,51,1.40
2017,05,07,03,52,1.40
2017,05,07,03,53,1.40
2017,05,07,03,54,1.40
2017,05,07,03,55,1.40
2017,05,07,03,56,1.40
2017,05,07,03,57,1.30
2017,05,07,03,58,1.30
2017,05,07,03,59,1.30
2017,05,07,04,00,1.30
2017,05,07,04,01,1.30
2017,05,07,04,02,1.30
2017,05,07,04,03,1.30
2017,05,07,04,04,1.30
2017,05,07,04,05,1.30
2017,05,07,04,06,1.30
2017,05,07,04,07,1.30
2017,05,07,04,08,1.30
2017,05,07,04,09,1.30
2017,05,07,04,10,1.30
2017,05,07,04,11,1.30
2017,05,07,04,12,1.30
2017,05,07,04,13,1.30
2017,05,07,04,14,1.30
2017,05,07,04,15,1.30
2017,05,07,04,16,1.30
2017,05,07,04,17,1.30
2017,05,07,04,18,1.30
2017,05,07,04,19,1.30
2017,05,07,04,20,1.30
2017,05,07,04,21,1.30
2017,05,07,04,22,1.30
2017,05,07,04,23,1.30
2017,05,07,04,24,1.30
2017,05,07,04,25,1.20
2017,05,07,04,26,1.30
2017,05,07,04,27,1.20
2017,05,07,04,28,1.20
2017,05,07,04,29,1.20
2017,05,07,04,30,1.20
2017,05,07,04,31,1.20
2017,05,07,04,32,1.20
2017,05,07,04,33,1.20
2017,05,07,04,34,1.20
2017,05,07,04,35,1.20
2017,05,07,04,36,1.10
2017,05,07,04,37,1.10
2017,05,07,04,38,1.10
2017,05,07,04,39,1.10
2017,05,07,04,40,1.10
2017,05,07,04,41,1.10
2017,05,07,04,42,1.10
2017,05,07,04,43,1.10
2017,05,07,04,44,1.10
2017,05,07,04,45,1.00
2017,05,07,04,46,1.00
2017,05,07,04,47,1.00
2017,05,07,04,48,1.00
2017,05,07,04,49,1.00
2017,05,07,04,50,1.00
2017,05,07,04,51,0.90
2017,05,07,04,52,0.90
2017,05,07,04,53,0.90
2017,05,07,04,54,0.90
2017,05,07,04,55,0.90
2017,05,07,04,56,0.90
2017,05,07,04,57,0.90
2017,05,07,04,58,0.90
2017,05,07,04,59,0.90
2017,05,07,05,00,0.90
2017,05,07,05,01,0.90
2017,05,07,05,02,0.90
2017,05,07,05,03,0.90
2017,05,07,05,04,0.90
2017,05,07,05,05,0.90
2017,05,07,05,06,0.90
2017,05,07,05,07,0.90
2017,05,07,05,08,0.90
2017,05,07,05,09,0.90
2017,05,07,05,10,0.90
2017,05,07,05,11,0.80
2017,05,07,05,12,0.80
2017,05,07,05,13,0.80
2017,05,07,05,14,0.80
2017,05,07,05,15,0.80
2017,05,07,05,16,0.80
2017,05,07,05,17,0.90
2017,05,07,05,18,0.90
2017,05,07,05,19,0.90
2017,05,07,05,20,0.90
2017,05,07,05,21,0.90
2017,05,07,05,22,0.90
2017,05,07,05,23,0.90
2017,05,07,05,24,0.90
2017,05,07,05,25,0.90
2017,05,07,05,26,0.90
2017,05,07,05,27,0.90
2017,05,07,05,28,0.90
2017,05,07,05,29,0.90
2017,05,07,05,30,0.80
2017,05,07,05,31,0.80
2017,05,07,05,32,0.80
2017,05,07,05,33,0.80
2017,05,07,05,34,0.80
2017,05,07,05,35,0.80
2017,05,07,05,36,0.80
2017,05,07,05,37,0.70
2017,05,07,05,38,0.70
2017,05,07,05,39,0.70
2017,05,07,05,40,0.70
2017,05,07,05,41,0.70
2017,05,07,05,42,0.70
2017,05,07,05,43,0.70
2017,05,07,05,44,0.70
2017,05,07,05,45,0.70
2017,05,07,05,46,0.60
2017,05,07,05,47,0.60
2017,05,07,05,48,0.60
2017,05,07,05,49,0.60
2017,05,07,05,50,0.60
2017,05,07,05,51,0.60
2017,05,07,05,52,0.60
2017,05,07,05,53,0.60
2017,05,07,05,54,0.60
2017,05,07,05,55,0.70
2017,05,07,05,56,0.70
2017,05,07,05,57,0.70
2017,05,07,05,58,0.70
2017,05,07,05,59,0.70
2017,05,07,06,00,0.70
2017,05,07,06,01,0.70
2017,05,07,06,02,0.80
2017,05,07,06,03,0.80
2017,05,07,06,04,0.80
2017,05,07,06,05,0.80
2017,05,07,06,06,0.80
2017,05,07,06,07,0.80
2017,05,07,06,08,0.80
2017,05,07,06,09,0.70
2017,05,07,06,10,0.70
2017,05,07,06,11,0.70
2017,05,07,06,12,0.70
2017,05,07,06,13,0.70
2017,05,07,06,14,0.70
2017,05,07,06,15,0.70
2017,05,07,06,16,0.60
2017,05,07,06,17,0.60
2017,05,07,06,18,0.60
2017,05,07,06,19,0.60
2017,05,07,06,20,0.60
2017,05,07,06,21,0.60
2017,05,07,06,22,0.60
2017,05,07,06,23,0.60
2017,05,07,06,24,0.60
2017,05,07,06,25,0.60
2017,05,07,06,26,0.50
2017,05,07,06,27,0.50
2017,05,07,06,28,0.50
2017,05,07,06,29,0.50
2017,05,07,06,30,0.50
2017,05,07,06,31,0.60
2017,05,07,06,32,0.60
2017,05,07,06,33,0.60
2017,05,07,06,34,0.60
2017,05,07,06,35,0.60
2017,05,07,06,36,0.60
2017,05,07,06,37,0.60
2017,05,07,06,38,0.60
2017,05,07,06,39,0.70
2017,05,07,06,40,0.70
2017,05,07,06,41,0.70
2017,05,07,06,42,0.70
2017,05,07,06,43,0.70
2017,05,07,06,44,0.70
2017,05,07,06,45,0.70
2017,05,07,06,46,0.70
2017,05,07,06,47,0.70
2017,05,07,06,48,0.70
2017,05,07,06,49,0.70
2017,05,07,06,50,0.80
2017,05,07,06,51,0.80
2017,05,07,06,52,0.80
2017,05,07,06,53,0.80
2017,05,07,06,54,0.90
2017,05,07,06,55,0.90
2017,05,07,06,56,1.00
2017,05,07,06,57,1.10
2017,05,07,06,58,1.10
2017,05,07,06,59,1.20
2017,05,07,07,00,1.20
2017,05,07,07,01,1.20
2017,05,07,07,02,1.30
2017,05,07,07,03,1.30
2017,05,07,07,04,1.30
2017,05,07,07,05,1.40
2017,05,07,07,06,1.40
2017,05,07,07,07,1.40
2017,05,07,07,08,1.40
2017,05,07,07,09,1.40
2017,05,07,07,10,1.40
2017,05,07,07,11,1.30
2017,05,07,07,12,1.30
2017,05,07,07,13,1.30
2017,05,07,07,14,1.30
2017,05,07,07,15,1.30
2017,05,07,07,16,1.30
2017,05,07,07,17,1.30
2017,05,07,07,18,1.30
2017,05,07,07,19,1.30
2017,05,07,07,20,1.30
2017,05,07,07,21,1.30
2017,05,07,07,22,1.30
2017,05,07,07,23,1.30
2017,05,07,07,24,1.40
2017,05,07,07,25,1.40
2017,05,07,07,26,1.40
2017,05,07,07,27,1.50
2017,05,07,07,28,1.50
2017,05,07,07,29,1.60
2017,05,07,07,30,1.70
2017,05,07,07,31,1.70
2017,05,07,07,32,1.80
2017,05,07,07,33,1.80
2017,05,07,07,34,1.90
2017,05,07,07,35,2.00
2017,05,07,07,36,2.00
2017,05,07,07,37,2.10
2017,05,07,07,38,2.20
2017,05,07,07,39,2.20
2017,05,07,07,40,2.30
2017,05,07,07,41,2.40
2017,05,07,07,42,2.50
2017,05,07,07,43,2.60
2017,05,07,07,44,2.70
2017,05,07,07,45,2.80
2017,05,07,07,46,2.90
2017,05,07,07,47,3.00
2017,05,07,07,48,3.00
2017,05,07,07,49,3.10
2017,05,07,07,50,3.20
2017,05,07,07,51,3.30
2017,05,07,07,52,3.30
2017,05,07,07,53,3.40
2017,05,07,07,54,3.50
2017,05,07,07,55,3.60
2017,05,07,07,56,3.70
2017,05,07,07,57,3.80
2017,05,07,07,58,3.80
2017,05,07,07,59,3.90
2017,05,07,08,00,3.90
2017,05,07,08,01,4.00
2017,05,07,08,02,4.10
2017,05,07,08,03,4.10
2017,05,07,08,04,4.20
2017,05,07,08,05,4.20
2017,05,07,08,06,4.30
2017,05,07,08,07,4.40
2017,05,07,08,08,4.50
2017,05,07,08,09,4.60
2017,05,07,08,10,4.60
2017,05,07,08,11,4.70
2017,05,07,08,12,4.80
2017,05,07,08,13,4.80
2017,05,07,08,14,4.90
2017,05,07,08,15,5.00
2017,05,07,08,16,5.20
2017,05,07,08,17,5.30
2017,05,07,08,18,5.40
2017,05,07,08,19,5.40
2017,05,07,08,20,5.50
2017,05,07,08,21,5.60
2017,05,07,08,22,5.70
2017,05,07,08,23,5.80
2017,05,07,08,24,6.00
2017,05,07,08,25,6.20
2017,05,07,08,26,6.40
2017,05,07,08,27,6.50
2017,05,07,08,28,6.70
2017,05,07,08,29,6.80
2017,05,07,08,30,7.00
2017,05,07,08,31,7.20
2017,05,07,08,32,7.30
2017,05,07,08,33,7.40
2017,05,07,08,34,7.60
2017,05,07,08,35,7.70
2017,05,07,08,36,7.80
2017,05,07,08,37,7.90
2017,05,07,08,38,8.00
2017,05,07,08,39,8.10
2017,05,07,08,40,8.20
2017,05,07,08,41,8.30
2017,05,07,08,42,8.30
2017,05,07,08,43,8.40
2017,05,07,08,44,8.40
2017,05,07,08,45,8.50
2017,05,07,08,46,8.60
2017,05,07,08,47,8.60
2017,05,07,08,48,8.60
2017,05,07,08,49,8.70
2017,05,07,08,50,8.70
2017,05,07,08,51,8.80
2017,05,07,08,52,8.80
2017,05,07,08,53,8.80
2017,05,07,08,54,8.80
2017,05,07,08,55,8.80
2017,05,07,08,56,8.80
2017,05,07,08,57,8.90
2017,05,07,08,58,8.90
2017,05,07,08,59,8.90
2017,05,07,09,00,8.90
2017,05,07,09,01,8.90
2017,05,07,09,02,8.90
2017,05,07,09,03,8.90
2017,05,07,09,04,8.90
2017,05,07,09,05,8.90
2017,05,07,09,06,8.90
2017,05,07,09,07,9.00
2017,05,07,09,08,9.10
2017,05,07,09,09,9.10
2017,05,07,09,10,9.10
2017,05,07,09,11,9.10
2017,05,07,09,12,9.20
2017,05,07,09,13,9.20
2017,05,07,09,14,9.20
2017,05,07,09,15,9.20
2017,05,07,09,16,9.20
2017,05,07,09,17,9.30
2017,05,07,09,18,9.30
2017,05,07,09,19,9.30
2017,05,07,09,20,9.30
2017,05,07,09,21,9.30
2017,05,07,09,22,9.30
2017,05,07,09,23,9.30
2017,05,07,09,24,9.30
2017,05,07,09,25,9.40
2017,05,07,09,26,9.40
2017,05,07,09,27,9.40
2017,05,07,09,28,9.40
2017,05,07,09,29,9.40
2017,05,07,09,30,9.50
2017,05,07,09,31,9.60
2017,05,07,09,32,9.60
2017,05,07,09,33,9.70
2017,05,07,09,34,9.70
2017,05,07,09,35,9.70
2017,05,07,09,36,9.70
2017,05,07,09,37,9.80
2017,05,07,09,38,9.80
2017,05,07,09,39,9.80
2017,05,07,09,40,9.90
2017,05,07,09,41,9.90
2017,05,07,09,42,9.90
2017,05,07,09,43,9.80
2017,05,07,09,44,9.80
2017,05,07,09,45,9.80
2017,05,07,09,46,9.80
2017,05,07,09,47,9.80
2017,05,07,09,48,9.80
2017,05,07,09,49,9.80
2017,05,07,09,50,9.80
2017,05,07,09,51,9.80
2017,05,07,09,52,9.80
2017,05,07,09,53,9.80
2017,05,07,09,54,9.90
2017,05,07,09,55,9.90
2017,05,07,09,56,10.00
2017,05,07,09,57,10.00
2017,05,07,09,58,10.00
2017,05,07,09,59,10.00
2017,05,07,10,00,10.10
2017,05,07,10,01,10.10
2017,05,07,10,02,10.10
2017,05,07,10,03,10.10
2017,05,07,10,04,10.10
2017,05,07,10,05,10.10
2017,05,07,10,06,10.20
2017,05,07,10,07,10.30
2017,05,07,10,08,10.40
2017,05,07,10,09,10.60
2017,05,07,10,10,10.70
2017,05,07,10,11,10.80
2017,05,07,10,12,10.90
2017,05,07,10,13,10.90
2017,05,07,10,14,10.90
2017,05,07,10,15,10.90
2017,05,07,10,16,10.90
2017,05,07,10,17,10.90
2017,05,07,10,18,10.90
2017,05,07,10,19,10.90
2017,05,07,10,20,11.00
2017,05,07,10,21,11.10
2017,05,07,10,22,11.10
2017,05,07,10,23,11.20
2017,05,07,10,24,11.20
2017,05,07,10,25,11.10
2017,05,07,10,26,11.10
2017,05,07,10,27,11.00
2017,05,07,10,28,11.10
2017,05,07,10,29,11.10
2017,05,07,10,30,11.10
2017,05,07,10,31,11.20
2017,05,07,10,32,11.20
2017,05,07,10,33,11.20
2017,05,07,10,34,11.20
2017,05,07,10,35,11.20
2017,05,07,10,36,11.20
2017,05,07,10,37,11.30
2017,05,07,10,38,11.40
2017,05,07,10,39,11.40
2017,05,07,10,40,11.50
2017,05,07,10,41,11.60
2017,05,07,10,42,11.70
2017,05,07,10,43,11.70
2017,05,07,10,44,11.80
2017,05,07,10,45,11.90
2017,05,07,10,46,11.90
2017,05,07,10,47,11.90
2017,05,07,10,48,11.90
2017,05,07,10,49,11.80
2017,05,07,10,50,11.70
2017,05,07,10,51,11.60
2017,05,07,10,52,11.50
2017,05,07,10,53,11.40
2017,05,07,10,54,11.40
2017,05,07,10,55,11.50
2017,05,07,10,56,11.50
2017,05,07,10,57,11.60
2017,05,07,10,58,11.60
2017,05,07,10,59,11.60
2017,05,07,11,00,11.60
2017,05,07,11,01,11.60
2017,05,07,11,02,11.60
2017,05,07,11,03,11.60
2017,05,07,11,04,11.60
2017,05,07,11,05,11.60
2017,05,07,11,06,11.60
2017,05,07,11,07,11.50
2017,05,07,11,08,11.50
2017,05,07,11,09,11.40
2017,05,07,11,10,11.40
2017,05,07,11,11,11.40
2017,05,07,11,12,11.40
2017,05,07,11,13,11.40
2017,05,07,11,14,11.40
2017,05,07,11,15,11.40
2017,05,07,11,16,11.40
2017,05,07,11,17,11.30
2017,05,07,11,18,11.30
2017,05,07,11,19,11.30
2017,05,07,11,20,11.20
2017,05,07,11,21,11.20
2017,05,07,11,22,11.20
2017,05,07,11,23,11.30
2017,05,07,11,24,11.40
2017,05,07,11,25,11.40
2017,05,07,11,26,11.30
2017,05,07,11,27,11.20
2017,05,07,11,28,11.20
2017,05,07,11,29,11.30
2017,05,07,11,30,11.40
2017,05,07,11,31,11.50
2017,05,07,11,32,11.70
2017,05,07,11,33,11.70
2017,05,07,11,34,11.80
2017,05,07,11,35,11.90
2017,05,07,11,36,12.00
2017,05,07,11,37,12.10
2017,05,07,11,38,12.00
2017,05,07,11,39,11.90
2017,05,07,11,40,11.90
2017,05,07,11,41,11.80
2017,05,07,11,42,11.70
2017,05,07,11,43,11.70
2017,05,07,11,44,11.70
2017,05,07,11,45,11.60
2017,05,07,11,46,11.50
2017,05,07,11,47,11.50
2017,05,07,11,48,11.40
2017,05,07,11,49,11.40
2017,05,07,11,50,11.30
2017,05,07,11,51,11.30
2017,05,07,11,52,11.30
2017,05,07,11,53,11.40
2017,05,07,11,54,11.40
2017,05,07,11,55,11.50
2017,05,07,11,56,11.60
2017,05,07,11,57,11.60
2017,05,07,11,58,11.70
2017,05,07,11,59,11.70
2017,05,07,12,00,11.70
2017,05,07,12,01,11.70
2017,05,07,12,02,11.70
2017,05,07,12,03,11.80
2017,05,07,12,04,11.80
2017,05,07,12,05,11.80
2017,05,07,12,06,11.80
2017,05,07,12,07,11.90
2017,05,07,12,08,11.90
2017,05,07,12,09,12.00
2017,05,07,12,10,12.10
2017,05,07,12,11,12.20
2017,05,07,12,12,12.40
2017,05,07,12,13,12.50
2017,05,07,12,14,12.50
2017,05,07,12,15,12.60
2017,05,07,12,16,12.70
2017,05,07,12,17,12.70
2017,05,07,12,18,12.70
2017,05,07,12,19,12.60
2017,05,07,12,20,12.60
2017,05,07,12,21,12.50
2017,05,07,12,22,12.40
2017,05,07,12,23,12.30
2017,05,07,12,24,12.20
2017,05,07,12,25,12.20
2017,05,07,12,26,12.30
2017,05,07,12,27,12.30
2017,05,07,12,28,12.40
2017,05,07,12,29,12.40
2017,05,07,12,30,12.40
2017,05,07,12,31,12.40
2017,05,07,12,32,12.30
2017,05,07,12,33,12.30
2017,05,07,12,34,12.30
2017,05,07,12,35,12.30
2017,05,07,12,36,12.30
2017,05,07,12,37,12.30
2017,05,07,12,38,12.30
2017,05,07,12,39,12.30
2017,05,07,12,40,12.30
2017,05,07,12,41,12.20
2017,05,07,12,42,12.20
2017,05,07,12,43,12.20
2017,05,07,12,44,12.20
2017,05,07,12,45,12.20
2017,05,07,12,46,12.30
2017,05,07,12,47,12.30
2017,05,07,12,48,12.30
2017,05,07,12,49,12.40
2017,05,07,12,50,12.40
2017,05,07,12,51,12.50
2017,05,07,12,52,12.50
2017,05,07,12,53,12.60
2017,05,07,12,54,12.70
2017,05,07,12,55,12.80
2017,05,07,12,56,12.80
2017,05,07,12,57,12.80
2017,05,07,12,58,12.80
2017,05,07,12,59,12.90
2017,05,07,13,00,12.90
2017,05,07,13,01,12.90
2017,05,07,13,02,12.90
2017,05,07,13,03,12.80
2017,05,07,13,04,12.80
2017,05,07,13,05,12.80
2017,05,07,13,06,12.70
2017,05,07,13,07,12.60
2017,05,07,13,08,12.60
2017,05,07,13,09,12.70
2017,05,07,13,10,12.80
2017,05,07,13,11,12.90
2017,05,07,13,12,12.90
2017,05,07,13,13,12.80
2017,05,07,13,14,12.70
2017,05,07,13,15,12.70
2017,05,07,13,16,12.70
2017,05,07,13,17,12.80
2017,05,07,13,18,12.80
2017,05,07,13,19,12.90
2017,05,07,13,20,12.90
2017,05,07,13,21,12.90
2017,05,07,13,22,12.90
2017,05,07,13,23,12.90
2017,05,07,13,24,12.90
2017,05,07,13,25,12.80
2017,05,07,13,26,12.80
2017,05,07,13,27,12.80
2017,05,07,13,28,12.70
2017,05,07,13,29,12.70
2017,05,07,13,30,12.70
2017,05,07,13,31,12.70
2017,05,07,13,32,12.80
2017,05,07,13,33,12.80
2017,05,07,13,34,12.80
2017,05,07,13,35,12.80
2017,05,07,13,36,12.80
2017,05,07,13,37,12.90
2017,05,07,13,38,13.00
2017,05,07,13,39,13.10
2017,05,07,13,40,13.20
2017,05,07,13,41,13.30
2017,05,07,13,42,13.30
2017,05,07,13,43,13.30
2017,05,07,13,44,13.30
2017,05,07,13,45,13.30
2017,05,07,13,46,13.20
2017,05,07,13,47,13.20
2017,05,07,13,48,13.20
2017,05,07,13,49,13.30
2017,05,07,13,50,13.30
2017,05,07,13,51,13.30
2017,05,07,13,52,13.30
2017,05,07,13,53,13.30
2017,05,07,13,54,13.40
2017,05,07,13,55,13.40
2017,05,07,13,56,13.30
2017,05,07,13,57,13.30
2017,05,07,13,58,13.30
2017,05,07,13,59,13.30
2017,05,07,14,00,13.30
2017,05,07,14,01,13.40
2017,05,07,14,02,13.50
2017,05,07,14,03,13.50
2017,05,07,14,04,13.60
2017,05,07,14,05,13.70
2017,05,07,14,06,13.80
2017,05,07,14,07,13.90
2017,05,07,14,08,13.90
2017,05,07,14,09,13.90
2017,05,07,14,10,13.90
2017,05,07,14,11,13.90
2017,05,07,14,12,14.00
2017,05,07,14,13,14.10
2017,05,07,14,14,14.10
2017,05,07,14,15,14.10
2017,05,07,14,16,14.10
2017,05,07,14,17,14.10
2017,05,07,14,18,14.10
2017,05,07,14,19,14.10
2017,05,07,14,20,14.20
2017,05,07,14,21,14.20
2017,05,07,14,22,14.20
2017,05,07,14,23,14.20
2017,05,07,14,24,14.20
2017,05,07,14,25,14.20
2017,05,07,14,26,14.20
2017,05,07,14,27,14.10
2017,05,07,14,28,14.10
2017,05,07,14,29,14.10
2017,05,07,14,30,14.10
2017,05,07,14,31,14.10
2017,05,07,14,32,14.10
2017,05,07,14,33,14.20
2017,05,07,14,34,14.30
2017,05,07,14,35,14.40
2017,05,07,14,36,14.50
2017,05,07,14,37,14.50
2017,05,07,14,38,14.50
2017,05,07,14,39,14.50
2017,05,07,14,40,14.50
2017,05,07,14,41,14.60
2017,05,07,14,42,14.50
2017,05,07,14,43,14.50
2017,05,07,14,44,14.50
2017,05,07,14,45,14.40
2017,05,07,14,46,14.40
2017,05,07,14,47,14.40
2017,05,07,14,48,14.30
2017,05,07,14,49,14.30
2017,05,07,14,50,14.30
2017,05,07,14,51,14.30
2017,05,07,14,52,14.40
2017,05,07,14,53,14.50
2017,05,07,14,54,14.60
2017,05,07,14,55,14.60
2017,05,07,14,56,14.70
2017,05,07,14,57,14.70
2017,05,07,14,58,14.70
2017,05,07,14,59,14.70
2017,05,07,15,00,14.70
2017,05,07,15,01,14.70
2017,05,07,15,02,14.80
2017,05,07,15,03,14.80
2017,05,07,15,04,14.70
2017,05,07,15,05,14.70
2017,05,07,15,06,14.80
2017,05,07,15,07,14.90
2017,05,07,15,08,15.00
2017,05,07,15,09,15.10
2017,05,07,15,10,15.10
2017,05,07,15,11,15.10
2017,05,07,15,12,15.00
2017,05,07,15,13,14.90
2017,05,07,15,14,14.80
2017,05,07,15,15,14.70
2017,05,07,15,16,14.70
2017,05,07,15,17,14.60
2017,05,07,15,18,14.60
2017,05,07,15,19,14.60
2017,05,07,15,20,14.50
2017,05,07,15,21,14.50
2017,05,07,15,22,14.40
2017,05,07,15,23,14.30
2017,05,07,15,24,14.30
2017,05,07,15,25,14.30
2017,05,07,15,26,14.20
2017,05,07,15,27,14.30
2017,05,07,15,28,14.30
2017,05,07,15,29,14.30
2017,05,07,15,30,14.40
2017,05,07,15,31,14.40
2017,05,07,15,32,14.40
2017,05,07,15,33,14.30
2017,05,07,15,34,14.20
2017,05,07,15,35,14.10
2017,05,07,15,36,14.10
2017,05,07,15,37,14.10
2017,05,07,15,38,14.10
2017,05,07,15,39,14.10
2017,05,07,15,40,14.20
2017,05,07,15,41,14.20
2017,05,07,15,42,14.20
2017,05,07,15,43,14.30
2017,05,07,15,44,14.30
2017,05,07,15,45,14.30
2017,05,07,15,46,14.40
2017,05,07,15,47,14.60
2017,05,07,15,48,14.70
2017,05,07,15,49,14.80
2017,05,07,15,50,14.80
2017,05,07,15,51,14.80
2017,05,07,15,52,14.90
2017,05,07,15,53,14.90
2017,05,07,15,54,14.90
2017,05,07,15,55,14.90
2017,05,07,15,56,14.90
2017,05,07,15,57,14.90
2017,05,07,15,58,15.00
2017,05,07,15,59,15.00
2017,05,07,16,00,15.10
2017,05,07,16,01,15.10
2017,05,07,16,02,15.20
2017,05,07,16,03,15.20
2017,05,07,16,04,15.20
2017,05,07,16,05,15.20
2017,05,07,16,06,15.20
2017,05,07,16,07,15.20
2017,05,07,16,08,15.10
2017,05,07,16,09,15.10
2017,05,07,16,10,15.10
2017,05,07,16,11,15.10
2017,05,07,16,12,15.10
2017,05,07,16,13,15.10
2017,05,07,16,14,15.20
2017,05,07,16,15,15.20
2017,05,07,16,16,15.20
2017,05,07,16,17,15.30
2017,05,07,16,18,15.40
2017,05,07,16,19,15.40
2017,05,07,16,20,15.40
2017,05,07,16,21,15.50
2017,05,07,16,22,15.60
2017,05,07,16,23,15.60
2017,05,07,16,24,15.70
2017,05,07,16,25,15.70
2017,05,07,16,26,15.70
2017,05,07,16,27,15.70
2017,05,07,16,28,15.70
2017,05,07,16,29,15.70
2017,05,07,16,30,15.60
2017,05,07,16,31,15.50
2017,05,07,16,32,15.50
2017,05,07,16,33,15.40
2017,05,07,16,34,15.40
2017,05,07,16,35,15.30
2017,05,07,16,36,15.30
2017,05,07,16,37,15.30
2017,05,07,16,38,15.40
2017,05,07,16,39,15.50
2017,05,07,16,40,15.60
2017,05,07,16,41,15.60
2017,05,07,16,42,15.50
2017,05,07,16,43,15.50
2017,05,07,16,44,15.50
2017,05,07,16,45,15.50
2017,05,07,16,46,15.60
2017,05,07,16,47,15.60
2017,05,07,16,48,15.60
2017,05,07,16,49,15.60
2017,05,07,16,50,15.60
2017,05,07,16,51,15.60
2017,05,07,16,52,15.60
2017,05,07,16,53,15.70
2017,05,07,16,54,15.70
2017,05,07,16,55,15.70
2017,05,07,16,56,15.70
2017,05,07,16,57,15.70
2017,05,07,16,58,15.70
2017,05,07,16,59,15.80
2017,05,07,17,00,15.80
2017,05,07,17,01,15.90
2017,05,07,17,02,15.90
2017,05,07,17,03,16.00
2017,05,07,17,04,16.10
2017,05,07,17,05,16.10
2017,05,07,17,06,16.10
2017,05,07,17,07,16.10
2017,05,07,17,08,16.10
2017,05,07,17,09,16.10
2017,05,07,17,10,16.20
2017,05,07,17,11,16.20
2017,05,07,17,12,16.20
2017,05,07,17,13,16.30
2017,05,07,17,14,16.40
2017,05,07,17,15,16.40
2017,05,07,17,16,16.50
2017,05,07,17,17,16.50
2017,05,07,17,18,16.50
2017,05,07,17,19,16.50
2017,05,07,17,20,16.50
2017,05,07,17,21,16.40
2017,05,07,17,22,16.40
2017,05,07,17,23,16.40
2017,05,07,17,24,16.40
2017,05,07,17,25,16.40
2017,05,07,17,26,16.40
2017,05,07,17,27,16.40
2017,05,07,17,28,16.40
2017,05,07,17,29,16.40
2017,05,07,17,30,16.30
2017,05,07,17,31,16.30
2017,05,07,17,32,16.30
2017,05,07,17,33,16.40
2017,05,07,17,34,16.40
2017,05,07,17,35,16.40
2017,05,07,17,36,16.40
2017,05,07,17,37,16.40
2017,05,07,17,38,16.50
2017,05,07,17,39,16.50
2017,05,07,17,40,16.60
2017,05,07,17,41,16.60
2017,05,07,17,42,16.50
2017,05,07,17,43,16.40
2017,05,07,17,44,16.20
2017,05,07,17,45,16.10